| time (UTC) | temp F | wind direction | speed MPH | gust MPH | rain 1hr in | rain 24hr in | rain mn in | humidity % | barometer mb |
| 20260502163100 | 48 | 347 | 6.0 | 10.0 | 0.00 | 0.03 | 0.00 | 64 | 1019.6 |
| 20260502161553 | 47 | 347 | 5.0 | 10.0 | 0.00 | 0.03 | 0.00 | 69 | 1019.6 |
| 20260502151535 | 42 | 351 | 7.0 | 12.0 | 0.00 | 0.03 | 0.00 | 75 | 1020.1 |
| 20260502130108 | 35 | 27 | 5.0 | 8.0 | 0.00 | 0.03 | 0.00 | 93 | 1019.4 |
| 20260502123051 | 35 | 28 | 5.0 | 9.0 | 0.00 | 0.03 | 0.00 | 93 | 1018.9 |
| 20260502121559 | 35 | 28 | 5.0 | 9.0 | 0.00 | 0.03 | 0.00 | 92 | 1018.8 |
| 20260502120110 | 35 | 28 | 4.0 | 9.0 | 0.00 | 0.03 | 0.00 | 92 | 1018.7 |
| 20260502114548 | 36 | 28 | 3.0 | 6.0 | 0.00 | 0.04 | 0.00 | 91 | 1018.9 |
| 20260502113054 | 37 | 28 | 3.0 | 8.0 | 0.00 | 0.04 | 0.00 | 91 | 1019.1 |
| 20260502111544 | 37 | 30 | 5.0 | 10.0 | 0.00 | 0.04 | 0.00 | 92 | 1019.0 |
| 20260502110042 | 37 | 163 | 3.0 | 6.0 | 0.00 | 0.04 | 0.00 | 92 | 1018.9 |
| 20260502104536 | 37 | 163 | 5.0 | 7.0 | 0.00 | 0.06 | 0.00 | 92 | 1018.7 |
| 20260502103058 | 37 | 163 | 2.0 | 7.0 | 0.00 | 0.06 | 0.00 | 92 | 1018.7 |
| 20260502101547 | 37 | 163 | 3.0 | 7.0 | 0.00 | 0.06 | 0.00 | 91 | 1018.6 |
| 20260502091531 | 38 | 163 | 0.0 | 1.0 | 0.00 | 0.07 | 0.00 | 86 | 1018.2 |
| 20260502071524 | 38 | 163 | 5.0 | 9.0 | 0.00 | 0.15 | 0.00 | 87 | 1018.5 |
| 20260502070024 | 38 | 163 | 4.0 | 7.0 | 0.00 | 0.15 | 0.00 | 87 | 1018.6 |
| 20260502064523 | 38 | 163 | 2.0 | 9.0 | 0.00 | 0.16 | 0.00 | 88 | 1018.4 |
| 20260502063019 | 38 | 163 | 5.0 | 8.0 | 0.00 | 0.16 | 0.00 | 88 | 1018.1 |
| 20260502061518 | 37 | 153 | 6.0 | 12.0 | 0.00 | 0.16 | 0.00 | 89 | 1018.1 |
| 20260502060014 | 37 | 170 | 6.0 | 9.0 | 0.00 | 0.16 | 0.00 | 91 | 1017.7 |
| 20260502054514 | 38 | 61 | 1.0 | 4.0 | 0.00 | 0.16 | 0.16 | 92 | 1017.6 |
| 20260502053011 | 38 | 61 | 0.0 | 3.0 | 0.00 | 0.16 | 0.16 | 92 | 1017.4 |
| 20260502051510 | 38 | 61 | 1.0 | 5.0 | 0.00 | 0.16 | 0.16 | 91 | 1017.2 |
| 20260502050008 | 38 | 61 | 2.0 | 7.0 | 0.00 | 0.16 | 0.16 | 92 | 1017.1 |
| 20260502044508 | 38 | 61 | 4.0 | 7.0 | 0.00 | 0.16 | 0.16 | 91 | 1016.9 |
| 20260502043007 | 39 | 61 | 2.0 | 9.0 | 0.00 | 0.16 | 0.16 | 91 | 1016.7 |
| 20260502041507 | 39 | 172 | 2.0 | 4.0 | 0.00 | 0.16 | 0.16 | 90 | 1016.8 |
| 20260502040008 | 38 | 172 | 0.0 | 3.0 | 0.00 | 0.16 | 0.16 | 89 | 1017.0 |
| 20260502034509 | 38 | 172 | 0.0 | 0.0 | 0.00 | 0.25 | 0.16 | 88 | 1016.9 |
| 20260502033008 | 38 | 172 | 1.0 | 3.0 | 0.00 | 0.25 | 0.16 | 88 | 1016.6 |
| 20260502031501 | 38 | 172 | 4.0 | 9.0 | 0.00 | 0.25 | 0.16 | 88 | 1016.3 |
| 20260502030107 | 38 | 171 | 5.0 | 11.0 | 0.00 | 0.25 | 0.16 | 88 | 1015.8 |
| 20260502024556 | 38 | 175 | 6.0 | 9.0 | 0.00 | 0.28 | 0.16 | 89 | 1015.5 |
| 20260502023059 | 38 | 177 | 4.0 | 8.0 | 0.00 | 0.28 | 0.16 | 89 | 1015.1 |
| 20260502021552 | 38 | 177 | 5.0 | 8.0 | 0.00 | 0.28 | 0.16 | 88 | 1014.8 |
| 20260502020048 | 39 | 180 | 8.0 | 15.0 | 0.00 | 0.28 | 0.16 | 87 | 1014.4 |
| 20260502014546 | 39 | 175 | 10.0 | 14.0 | 0.00 | 0.28 | 0.16 | 85 | 1014.0 |
| 20260502013048 | 39 | 182 | 5.0 | 13.0 | 0.00 | 0.28 | 0.16 | 85 | 1014.0 |
| 20260502011541 | 40 | 172 | 8.0 | 13.0 | 0.00 | 0.28 | 0.16 | 84 | 1014.0 |
| 20260502010042 | 40 | 196 | 6.0 | 12.0 | 0.00 | 0.28 | 0.16 | 83 | 1013.5 |
| 20260502004535 | 41 | 186 | 7.0 | 14.0 | 0.01 | 0.28 | 0.16 | 81 | 1013.1 |
| 20260502003033 | 42 | 182 | 9.0 | 17.0 | 0.01 | 0.28 | 0.16 | 82 | 1012.3 |
| 20260502001533 | 42 | 157 | 2.0 | 8.0 | 0.03 | 0.28 | 0.16 | 85 | 1012.4 |
| 20260502000031 | 43 | 171 | 3.0 | 10.0 | 0.03 | 0.28 | 0.16 | 86 | 1012.2 |
| 20260501234535 | 42 | 129 | 3.0 | 12.0 | 0.02 | 0.27 | 0.15 | 85 | 1012.0 |
| 20260501233030 | 42 | 107 | 0.0 | 0.0 | 0.02 | 0.27 | 0.15 | 82 | 1012.6 |
| 20260501231528 | 42 | 107 | 0.0 | 2.0 | 0.00 | 0.25 | 0.13 | 81 | 1012.5 |
| 20260501230026 | 42 | 107 | 0.0 | 5.0 | 0.00 | 0.25 | 0.13 | 78 | 1011.9 |
| 20260501224526 | 44 | 107 | 4.0 | 7.0 | 0.00 | 0.25 | 0.13 | 71 | 1011.5 |
| 20260501223033 | 45 | 107 | 5.0 | 9.0 | 0.00 | 0.25 | 0.13 | 67 | 1011.1 |
| 20260501221522 | 48 | 167 | 6.0 | 16.0 | 0.00 | 0.25 | 0.13 | 59 | 1010.8 |
| 20260501220019 | 48 | 136 | 6.0 | 20.0 | 0.00 | 0.25 | 0.13 | 59 | 1010.5 |
| 20260501214527 | 48 | 163 | 7.0 | 17.0 | 0.00 | 0.25 | 0.13 | 62 | 1010.3 |
| 20260501213018 | 47 | 164 | 9.0 | 19.0 | 0.00 | 0.25 | 0.13 | 61 | 1010.4 |
| 20260501211518 | 49 | 200 | 14.0 | 21.0 | 0.00 | 0.25 | 0.13 | 58 | 1010.1 |
| 20260501210018 | 49 | 203 | 13.0 | 22.0 | 0.00 | 0.25 | 0.13 | 57 | 1009.9 |
| 20260501204517 | 50 | 156 | 15.0 | 23.0 | 0.00 | 0.25 | 0.13 | 56 | 1009.9 |
| 20260501203025 | 51 | 173 | 13.0 | 22.0 | 0.00 | 0.25 | 0.13 | 56 | 1009.8 |
| 20260501201516 | 51 | 212 | 12.0 | 20.0 | 0.00 | 0.25 | 0.13 | 56 | 1009.6 |
| 20260501200014 | 52 | 176 | 10.0 | 19.0 | 0.00 | 0.25 | 0.13 | 56 | 1009.7 |
| 20260501194510 | 49 | 182 | 6.0 | 18.0 | 0.00 | 0.25 | 0.13 | 61 | 1009.9 |
| 20260501193009 | 49 | 183 | 6.0 | 11.0 | 0.00 | 0.25 | 0.13 | 62 | 1009.8 |
| 20260501191509 | 49 | 245 | 4.0 | 8.0 | 0.00 | 0.25 | 0.13 | 63 | 1010.1 |
| 20260501190009 | 48 | 245 | 6.0 | 10.0 | 0.00 | 0.25 | 0.13 | 65 | 1010.2 |
| 20260501184506 | 48 | 251 | 5.0 | 9.0 | 0.00 | 0.25 | 0.13 | 69 | 1010.2 |
| 20260501183003 | 48 | 251 | 2.0 | 9.0 | 0.00 | 0.25 | 0.13 | 72 | 1010.3 |
| 20260501181620 | 47 | 267 | 5.0 | 9.0 | 0.00 | 0.25 | 0.13 | 73 | 1010.5 |
| 20260501174552 | 44 | 277 | 4.0 | 9.0 | 0.00 | 0.25 | 0.13 | 82 | 1010.9 |
| 20260501173048 | 42 | 284 | 4.0 | 8.0 | 0.00 | 0.25 | 0.13 | 85 | 1010.8 |
| 20260501171558 | 42 | 292 | 5.0 | 9.0 | 0.00 | 0.25 | 0.13 | 86 | 1010.8 |